Flag for U.S.A. Weather past 2 weeks in Angels Camp, California, U.S.A.

Now
53 °F

Clear.


Feels Like: 53 °F
Forecast: 45 / 83 °F
Wind: No wind

Location: Modesto City-County-Sham Field

Current Time: Oct 24, 2014 at 7:56:24 AM

Latest Report: Oct 24, 2014 at 6:53 AM


Visibility: 9 mi

Pressure: 29.97 "Hg

Humidity: 89%

Dew point: 50 °F

Location of Angels CampLocation

Historic Weather in Angels Camp — Graph

°F

Angels Camp temperature yesterday

Maximum temperature yesterday: 77 °F (at 1:53 PM)
Minimum temperature yesterday: 53 °F (at 3:53 AM)
Average temperature yesterday: 64 °F

Past Weeks' High & Low Weather Summary

 TemperatureHumidityPressure
High89 °F (Oct 13, 3:53 PM)93% (Oct 19, 5:53 AM)30.09 "Hg (Oct 19, 5:53 AM)
Low51 °F (Oct 21, 7:53 AM)12% (Oct 12, 3:53 PM)29.76 "Hg (Oct 14, 2:53 PM)
Average67 °F56%29.94 "Hg
* Reported Oct 9 5:53 AM — Oct 24 5:53 AM, Angels Camp, Weather by CustomWeather, © 2014

Note: Actual official high and low records may vary slightly from our data, if they occured in-between our weather recording intervals... More about our weather records

Advertising

Angels Camp weather history for previous 24 hours

 ConditionsComfort  
Time TempWeatherWind HumidityBarometerVisibility
5:53 AM
Oct 24
54 °FClear.5 mph93%29.97 "Hg10 mi
4:53 AM54 °FClear.5 mph93%29.96 "Hg10 mi
3:53 AM55 °FClear.6 mph90%29.97 "Hg10 mi
2:53 AM56 °FClear.8 mph90%29.98 "Hg10 mi
1:53 AM57 °FClear.9 mph87%29.99 "Hg10 mi
12:53 AM59 °FClear.13 mph84%29.99 "Hg10 mi
11:53 PM
Oct 23
60 °FClear.9 mph78%29.98 "Hg10 mi
10:53 PM60 °FClear.3 mph78%29.98 "Hg10 mi
9:53 PM60 °FClear.No wind75%29.97 "Hg10 mi
8:53 PM63 °FClear.No wind70%29.96 "Hg10 mi
7:53 PM66 °FClear.No wind63%29.96 "Hg10 mi
6:53 PM69 °FSunny.5 mph53%29.95 "Hg10 mi
5:53 PM74 °FSunny.6 mph43%29.95 "Hg10 mi
4:53 PM75 °FSunny.7 mph43%29.96 "Hg10 mi
3:53 PM77 °FSunny.6 mph37%29.97 "Hg10 mi
2:53 PM77 °FSunny.8 mph36%29.98 "Hg10 mi
1:53 PM77 °FSunny.7 mph35%30.01 "Hg10 mi
12:53 PM75 °FSunny.7 mph42%30.03 "Hg10 mi
11:53 AM71 °FSunny.6 mph53%30.05 "Hg10 mi
10:53 AM69 °FSunny.7 mph55%30.06 "Hg10 mi
9:53 AM65 °FSunny.6 mph66%30.06 "Hg10 mi
8:53 AM61 °FSunny.3 mph72%30.06 "Hg10 mi
7:53 AM56 °FClear.No wind81%30.04 "Hg10 mi
Weather by CustomWeather, © 2014

See weather overviewHow to use our weather pages